Year,Month,Day,Hour,Minute,Value (Times are PST for insolation in W/m^2)
2006,07,16,00,00,0.00
2006,07,16,00,01,0.00
2006,07,16,00,02,0.00
2006,07,16,00,03,0.00
2006,07,16,00,04,0.00
2006,07,16,00,05,0.00
2006,07,16,00,06,0.00
2006,07,16,00,07,0.00
2006,07,16,00,08,0.00
2006,07,16,00,09,0.00
2006,07,16,00,10,0.00
2006,07,16,00,11,0.00
2006,07,16,00,12,0.00
2006,07,16,00,13,0.00
2006,07,16,00,14,0.00
2006,07,16,00,15,0.00
2006,07,16,00,16,0.00
2006,07,16,00,17,0.00
2006,07,16,00,18,0.00
2006,07,16,00,19,0.00
2006,07,16,00,20,0.00
2006,07,16,00,21,0.00
2006,07,16,00,22,0.00
2006,07,16,00,23,0.00
2006,07,16,00,24,0.00
2006,07,16,00,25,0.00
2006,07,16,00,26,0.00
2006,07,16,00,27,0.00
2006,07,16,00,28,0.00
2006,07,16,00,29,0.00
2006,07,16,00,30,0.00
2006,07,16,00,31,0.00
2006,07,16,00,32,0.00
2006,07,16,00,33,0.00
2006,07,16,00,34,0.00
2006,07,16,00,35,0.00
2006,07,16,00,36,0.00
2006,07,16,00,37,0.00
2006,07,16,00,38,0.00
2006,07,16,00,39,0.00
2006,07,16,00,40,0.00
2006,07,16,00,41,0.00
2006,07,16,00,42,0.00
2006,07,16,00,43,0.00
2006,07,16,00,44,0.00
2006,07,16,00,45,0.00
2006,07,16,00,46,0.00
2006,07,16,00,47,0.00
2006,07,16,00,48,0.00
2006,07,16,00,49,0.00
2006,07,16,00,50,0.00
2006,07,16,00,51,0.00
2006,07,16,00,52,0.00
2006,07,16,00,53,0.00
2006,07,16,00,54,0.00
2006,07,16,00,55,0.00
2006,07,16,00,56,0.00
2006,07,16,00,57,0.00
2006,07,16,00,58,0.00
2006,07,16,00,59,0.00
2006,07,16,01,00,0.00
2006,07,16,01,01,0.00
2006,07,16,01,02,0.00
2006,07,16,01,03,0.00
2006,07,16,01,04,0.00
2006,07,16,01,05,0.00
2006,07,16,01,06,0.00
2006,07,16,01,07,0.00
2006,07,16,01,08,0.00
2006,07,16,01,09,0.00
2006,07,16,01,10,0.00
2006,07,16,01,11,0.00
2006,07,16,01,12,0.00
2006,07,16,01,13,0.00
2006,07,16,01,14,0.00
2006,07,16,01,15,0.00
2006,07,16,01,16,0.00
2006,07,16,01,17,0.00
2006,07,16,01,18,0.00
2006,07,16,01,19,0.00
2006,07,16,01,20,0.00
2006,07,16,01,21,0.00
2006,07,16,01,22,0.00
2006,07,16,01,23,0.00
2006,07,16,01,24,0.00
2006,07,16,01,25,0.00
2006,07,16,01,26,0.00
2006,07,16,01,27,0.00
2006,07,16,01,28,0.00
2006,07,16,01,29,0.00
2006,07,16,01,30,0.00
2006,07,16,01,31,0.00
2006,07,16,01,32,0.00
2006,07,16,01,33,0.00
2006,07,16,01,34,0.00
2006,07,16,01,35,0.00
2006,07,16,01,36,0.00
2006,07,16,01,37,0.00
2006,07,16,01,38,0.00
2006,07,16,01,39,0.00
2006,07,16,01,40,0.00
2006,07,16,01,41,0.00
2006,07,16,01,42,0.00
2006,07,16,01,43,0.00
2006,07,16,01,44,0.00
2006,07,16,01,45,0.00
2006,07,16,01,46,0.00
2006,07,16,01,47,0.00
2006,07,16,01,48,0.00
2006,07,16,01,49,0.00
2006,07,16,01,50,0.00
2006,07,16,01,51,0.00
2006,07,16,01,52,0.00
2006,07,16,01,53,0.00
2006,07,16,01,54,0.00
2006,07,16,01,55,0.00
2006,07,16,01,56,0.00
2006,07,16,01,57,0.00
2006,07,16,01,58,0.00
2006,07,16,01,59,0.00
2006,07,16,02,00,0.00
2006,07,16,02,01,0.00
2006,07,16,02,02,0.00
2006,07,16,02,03,0.00
2006,07,16,02,04,0.00
2006,07,16,02,05,0.00
2006,07,16,02,06,0.00
2006,07,16,02,07,0.00
2006,07,16,02,08,0.00
2006,07,16,02,09,0.00
2006,07,16,02,10,0.00
2006,07,16,02,11,0.00
2006,07,16,02,12,0.00
2006,07,16,02,13,0.00
2006,07,16,02,14,0.00
2006,07,16,02,15,0.00
2006,07,16,02,16,0.00
2006,07,16,02,17,0.00
2006,07,16,02,18,0.00
2006,07,16,02,19,0.00
2006,07,16,02,20,0.00
2006,07,16,02,21,0.00
2006,07,16,02,22,0.00
2006,07,16,02,23,0.00
2006,07,16,02,24,0.00
2006,07,16,02,25,0.00
2006,07,16,02,26,0.00
2006,07,16,02,27,0.00
2006,07,16,02,28,0.00
2006,07,16,02,29,0.00
2006,07,16,02,30,0.00
2006,07,16,02,31,0.00
2006,07,16,02,32,0.00
2006,07,16,02,33,0.00
2006,07,16,02,34,0.00
2006,07,16,02,35,0.00
2006,07,16,02,36,0.00
2006,07,16,02,37,0.00
2006,07,16,02,38,0.00
2006,07,16,02,39,0.00
2006,07,16,02,40,0.00
2006,07,16,02,41,0.00
2006,07,16,02,42,0.00
2006,07,16,02,43,0.00
2006,07,16,02,44,0.00
2006,07,16,02,45,0.00
2006,07,16,02,46,0.00
2006,07,16,02,47,0.00
2006,07,16,02,48,0.00
2006,07,16,02,49,0.00
2006,07,16,02,50,0.00
2006,07,16,02,51,0.00
2006,07,16,02,52,0.00
2006,07,16,02,53,0.00
2006,07,16,02,54,0.00
2006,07,16,02,55,0.00
2006,07,16,02,56,0.00
2006,07,16,02,57,0.00
2006,07,16,02,58,0.00
2006,07,16,02,59,0.00
2006,07,16,03,00,0.00
2006,07,16,03,01,0.00
2006,07,16,03,02,0.00
2006,07,16,03,03,0.00
2006,07,16,03,04,0.00
2006,07,16,03,05,0.00
2006,07,16,03,06,0.00
2006,07,16,03,07,0.00
2006,07,16,03,08,0.00
2006,07,16,03,09,0.00
2006,07,16,03,10,0.00
2006,07,16,03,11,0.00
2006,07,16,03,12,0.00
2006,07,16,03,13,0.00
2006,07,16,03,14,0.00
2006,07,16,03,15,0.00
2006,07,16,03,16,0.00
2006,07,16,03,17,0.00
2006,07,16,03,18,0.00
2006,07,16,03,19,0.00
2006,07,16,03,20,0.00
2006,07,16,03,21,0.00
2006,07,16,03,22,0.00
2006,07,16,03,23,0.00
2006,07,16,03,24,0.00
2006,07,16,03,25,0.00
2006,07,16,03,26,0.00
2006,07,16,03,27,0.00
2006,07,16,03,28,0.00
2006,07,16,03,29,0.00
2006,07,16,03,30,0.00
2006,07,16,03,31,0.00
2006,07,16,03,32,0.00
2006,07,16,03,33,0.00
2006,07,16,03,34,0.00
2006,07,16,03,35,0.00
2006,07,16,03,36,0.00
2006,07,16,03,37,0.00
2006,07,16,03,38,0.00
2006,07,16,03,39,0.00
2006,07,16,03,40,0.00
2006,07,16,03,41,0.00
2006,07,16,03,42,0.00
2006,07,16,03,43,0.00
2006,07,16,03,44,0.00
2006,07,16,03,45,0.00
2006,07,16,03,46,0.00
2006,07,16,03,47,0.00
2006,07,16,03,48,0.00
2006,07,16,03,49,0.00
2006,07,16,03,50,0.00
2006,07,16,03,51,0.00
2006,07,16,03,52,0.00
2006,07,16,03,53,0.00
2006,07,16,03,54,0.00
2006,07,16,03,55,0.00
2006,07,16,03,56,0.00
2006,07,16,03,57,0.00
2006,07,16,03,58,0.00
2006,07,16,03,59,0.00
2006,07,16,04,00,0.00
2006,07,16,04,01,0.00
2006,07,16,04,02,0.00
2006,07,16,04,03,0.00
2006,07,16,04,04,0.00
2006,07,16,04,05,0.00
2006,07,16,04,06,0.00
2006,07,16,04,07,0.00
2006,07,16,04,08,0.00
2006,07,16,04,09,0.00
2006,07,16,04,10,0.00
2006,07,16,04,11,0.00
2006,07,16,04,12,0.00
2006,07,16,04,13,0.00
2006,07,16,04,14,0.00
2006,07,16,04,15,0.00
2006,07,16,04,16,0.00
2006,07,16,04,17,0.00
2006,07,16,04,18,0.00
2006,07,16,04,19,0.00
2006,07,16,04,20,0.00
2006,07,16,04,21,0.00
2006,07,16,04,22,0.00
2006,07,16,04,23,0.00
2006,07,16,04,24,0.00
2006,07,16,04,25,0.00
2006,07,16,04,26,0.00
2006,07,16,04,27,0.00
2006,07,16,04,28,0.00
2006,07,16,04,29,0.00
2006,07,16,04,30,0.00
2006,07,16,04,31,0.00
2006,07,16,04,32,0.00
2006,07,16,04,33,0.00
2006,07,16,04,34,0.00
2006,07,16,04,35,0.00
2006,07,16,04,36,0.00
2006,07,16,04,37,0.00
2006,07,16,04,38,0.00
2006,07,16,04,39,0.00
2006,07,16,04,40,0.00
2006,07,16,04,41,0.00
2006,07,16,04,42,0.00
2006,07,16,04,43,0.00
2006,07,16,04,44,0.00
2006,07,16,04,45,0.00
2006,07,16,04,46,0.00
2006,07,16,04,47,0.00
2006,07,16,04,48,0.00
2006,07,16,04,49,0.00
2006,07,16,04,50,0.00
2006,07,16,04,51,0.00
2006,07,16,04,52,0.00
2006,07,16,04,53,0.00
2006,07,16,04,54,0.00
2006,07,16,04,55,0.00
2006,07,16,04,56,0.00
2006,07,16,04,57,0.00
2006,07,16,04,58,0.00
2006,07,16,04,59,0.00
2006,07,16,05,00,0.00
2006,07,16,05,01,0.00
2006,07,16,05,02,0.00
2006,07,16,05,03,0.00
2006,07,16,05,04,0.00
2006,07,16,05,05,0.00
2006,07,16,05,06,0.00
2006,07,16,05,07,0.00
2006,07,16,05,08,0.00
2006,07,16,05,09,0.00
2006,07,16,05,10,0.00
2006,07,16,05,11,0.00
2006,07,16,05,12,0.00
2006,07,16,05,13,0.00
2006,07,16,05,14,0.00
2006,07,16,05,15,0.00
2006,07,16,05,16,0.00
2006,07,16,05,17,0.00
2006,07,16,05,18,0.00
2006,07,16,05,19,0.00
2006,07,16,05,20,0.00
2006,07,16,05,21,0.00
2006,07,16,05,22,0.00
2006,07,16,05,23,0.00
2006,07,16,05,24,0.00
2006,07,16,05,25,0.00
2006,07,16,05,26,0.00
2006,07,16,05,27,0.00
2006,07,16,05,28,0.00
2006,07,16,05,29,0.00
2006,07,16,05,30,0.00
2006,07,16,05,31,4.20
2006,07,16,05,32,5.00
2006,07,16,05,33,5.00
2006,07,16,05,34,5.00
2006,07,16,05,35,5.00
2006,07,16,05,36,5.00
2006,07,16,05,37,5.00
2006,07,16,05,38,7.00
2006,07,16,05,39,7.00
2006,07,16,05,40,7.00
2006,07,16,05,41,7.00
2006,07,16,05,42,7.00
2006,07,16,05,43,7.10
2006,07,16,05,44,9.00
2006,07,16,05,45,9.00
2006,07,16,05,46,9.00
2006,07,16,05,47,9.00
2006,07,16,05,48,9.00
2006,07,16,05,49,10.80
2006,07,16,05,50,11.00
2006,07,16,05,51,11.00
2006,07,16,05,52,11.00
2006,07,16,05,53,11.00
2006,07,16,05,54,11.00
2006,07,16,05,55,11.90
2006,07,16,05,56,12.00
2006,07,16,05,57,12.00
2006,07,16,05,58,12.00
2006,07,16,05,59,12.00
2006,07,16,06,00,12.00
2006,07,16,06,01,13.90
2006,07,16,06,02,14.00
2006,07,16,06,03,14.80
2006,07,16,06,04,16.00
2006,07,16,06,05,16.00
2006,07,16,06,06,17.70
2006,07,16,06,07,17.70
2006,07,16,06,08,16.00
2006,07,16,06,09,16.00
2006,07,16,06,10,16.00
2006,07,16,06,11,16.00
2006,07,16,06,12,17.70
2006,07,16,06,13,18.00
2006,07,16,06,14,18.00
2006,07,16,06,15,18.00
2006,07,16,06,16,18.00
2006,07,16,06,17,18.00
2006,07,16,06,18,18.00
2006,07,16,06,19,18.00
2006,07,16,06,20,18.00
2006,07,16,06,21,18.00
2006,07,16,06,22,18.60
2006,07,16,06,23,19.00
2006,07,16,06,24,19.00
2006,07,16,06,25,19.00
2006,07,16,06,26,19.00
2006,07,16,06,27,19.00
2006,07,16,06,28,19.00
2006,07,16,06,29,19.00
2006,07,16,06,30,20.90
2006,07,16,06,31,21.00
2006,07,16,06,32,21.00
2006,07,16,06,33,21.00
2006,07,16,06,34,22.20
2006,07,16,06,35,23.00
2006,07,16,06,36,23.00
2006,07,16,06,37,23.50
2006,07,16,06,38,25.00
2006,07,16,06,39,25.00
2006,07,16,06,40,25.70
2006,07,16,06,41,25.20
2006,07,16,06,42,24.80
2006,07,16,06,43,25.00
2006,07,16,06,44,31.30
2006,07,16,06,45,27.70
2006,07,16,06,46,24.00
2006,07,16,06,47,23.00
2006,07,16,06,48,23.00
2006,07,16,06,49,23.00
2006,07,16,06,50,23.00
2006,07,16,06,51,23.00
2006,07,16,06,52,23.00
2006,07,16,06,53,24.70
2006,07,16,06,54,25.00
2006,07,16,06,55,25.00
2006,07,16,06,56,25.00
2006,07,16,06,57,25.00
2006,07,16,06,58,25.00
2006,07,16,06,59,25.00
2006,07,16,07,00,25.00
2006,07,16,07,01,25.00
2006,07,16,07,02,25.00
2006,07,16,07,03,25.00
2006,07,16,07,04,25.00
2006,07,16,07,05,25.00
2006,07,16,07,06,25.20
2006,07,16,07,07,26.00
2006,07,16,07,08,29.00
2006,07,16,07,09,29.60
2006,07,16,07,10,26.50
2006,07,16,07,11,26.00
2006,07,16,07,12,26.00
2006,07,16,07,13,26.00
2006,07,16,07,14,27.00
2006,07,16,07,15,32.40
2006,07,16,07,16,50.50
2006,07,16,07,17,91.70
2006,07,16,07,18,158.70
2006,07,16,07,19,209.30
2006,07,16,07,20,224.00
2006,07,16,07,21,227.60
2006,07,16,07,22,229.80
2006,07,16,07,23,232.10
2006,07,16,07,24,234.80
2006,07,16,07,25,237.70
2006,07,16,07,26,240.10
2006,07,16,07,27,242.40
2006,07,16,07,28,243.80
2006,07,16,07,29,209.00
2006,07,16,07,30,129.90
2006,07,16,07,31,56.30
2006,07,16,07,32,42.60
2006,07,16,07,33,101.90
2006,07,16,07,34,187.50
2006,07,16,07,35,180.30
2006,07,16,07,36,85.00
2006,07,16,07,37,56.00
2006,07,16,07,38,88.80
2006,07,16,07,39,115.60
2006,07,16,07,40,114.80
2006,07,16,07,41,94.30
2006,07,16,07,42,76.00
2006,07,16,07,43,79.20
2006,07,16,07,44,114.60
2006,07,16,07,45,206.80
2006,07,16,07,46,283.60
2006,07,16,07,47,294.20
2006,07,16,07,48,295.70
2006,07,16,07,49,298.90
2006,07,16,07,50,301.00
2006,07,16,07,51,303.30
2006,07,16,07,52,306.00
2006,07,16,07,53,308.70
2006,07,16,07,54,311.60
2006,07,16,07,55,314.00
2006,07,16,07,56,315.60
2006,07,16,07,57,317.50
2006,07,16,07,58,320.00
2006,07,16,07,59,322.20
2006,07,16,08,00,323.80
2006,07,16,08,01,327.20
2006,07,16,08,02,329.70
2006,07,16,08,03,333.30
2006,07,16,08,04,336.10
2006,07,16,08,05,338.30
2006,07,16,08,06,340.60
2006,07,16,08,07,344.10
2006,07,16,08,08,347.00
2006,07,16,08,09,349.60
2006,07,16,08,10,350.60
2006,07,16,08,11,355.50
2006,07,16,08,12,357.90
2006,07,16,08,13,359.60
2006,07,16,08,14,362.80
2006,07,16,08,15,365.70
2006,07,16,08,16,367.50
2006,07,16,08,17,371.00
2006,07,16,08,18,371.00
2006,07,16,08,19,375.00
2006,07,16,08,20,378.00
2006,07,16,08,21,382.30
2006,07,16,08,22,385.50
2006,07,16,08,23,388.60
2006,07,16,08,24,390.90
2006,07,16,08,25,394.40
2006,07,16,08,26,396.00
2006,07,16,08,27,398.80
2006,07,16,08,28,403.20
2006,07,16,08,29,404.70
2006,07,16,08,30,407.90
2006,07,16,08,31,410.60
2006,07,16,08,32,412.50
2006,07,16,08,33,416.70
2006,07,16,08,34,418.40
2006,07,16,08,35,421.40
2006,07,16,08,36,424.50
2006,07,16,08,37,427.50
2006,07,16,08,38,430.50
2006,07,16,08,39,431.90
2006,07,16,08,40,432.00
2006,07,16,08,41,434.20
2006,07,16,08,42,439.00
2006,07,16,08,43,442.80
2006,07,16,08,44,445.80
2006,07,16,08,45,450.00
2006,07,16,08,46,452.50
2006,07,16,08,47,455.20
2006,07,16,08,48,458.00
2006,07,16,08,49,460.40
2006,07,16,08,50,461.80
2006,07,16,08,51,464.40
2006,07,16,08,52,468.30
2006,07,16,08,53,469.80
2006,07,16,08,54,473.30
2006,07,16,08,55,475.70
2006,07,16,08,56,477.70
2006,07,16,08,57,480.00
2006,07,16,08,58,481.40
2006,07,16,08,59,486.60
2006,07,16,09,00,489.60
2006,07,16,09,01,492.80
2006,07,16,09,02,495.70
2006,07,16,09,03,497.30
2006,07,16,09,04,500.10
2006,07,16,09,05,503.50
2006,07,16,09,06,505.20
2006,07,16,09,07,507.50
2006,07,16,09,08,511.50
2006,07,16,09,09,513.40
2006,07,16,09,10,515.70
2006,07,16,09,11,518.40
2006,07,16,09,12,520.00
2006,07,16,09,13,523.10
2006,07,16,09,14,526.00
2006,07,16,09,15,529.40
2006,07,16,09,16,532.10
2006,07,16,09,17,535.00
2006,07,16,09,18,537.30
2006,07,16,09,19,538.00
2006,07,16,09,20,542.70
2006,07,16,09,21,545.40
2006,07,16,09,22,547.40
2006,07,16,09,23,549.00
2006,07,16,09,24,552.80
2006,07,16,09,25,554.80
2006,07,16,09,26,557.30
2006,07,16,09,27,561.50
2006,07,16,09,28,563.40
2006,07,16,09,29,565.00
2006,07,16,09,30,568.50
2006,07,16,09,31,570.80
2006,07,16,09,32,573.20
2006,07,16,09,33,575.60
2006,07,16,09,34,578.30
2006,07,16,09,35,581.10
2006,07,16,09,36,583.40
2006,07,16,09,37,586.50
2006,07,16,09,38,589.30
2006,07,16,09,39,591.30
2006,07,16,09,40,592.90
2006,07,16,09,41,595.10
2006,07,16,09,42,597.40
2006,07,16,09,43,600.60
2006,07,16,09,44,603.30
2006,07,16,09,45,605.30
2006,07,16,09,46,606.00
2006,07,16,09,47,609.40
2006,07,16,09,48,612.70
2006,07,16,09,49,614.90
2006,07,16,09,50,619.00
2006,07,16,09,51,620.00
2006,07,16,09,52,623.00
2006,07,16,09,53,625.30
2006,07,16,09,54,627.60
2006,07,16,09,55,628.00
2006,07,16,09,56,629.40
2006,07,16,09,57,635.30
2006,07,16,09,58,637.00
2006,07,16,09,59,639.20
2006,07,16,10,00,641.60
2006,07,16,10,01,643.20
2006,07,16,10,02,647.40
2006,07,16,10,03,649.00
2006,07,16,10,04,650.40
2006,07,16,10,05,653.30
2006,07,16,10,06,656.50
2006,07,16,10,07,657.00
2006,07,16,10,08,658.50
2006,07,16,10,09,663.00
2006,07,16,10,10,664.70
2006,07,16,10,11,667.40
2006,07,16,10,12,669.60
2006,07,16,10,13,671.20
2006,07,16,10,14,673.50
2006,07,16,10,15,675.80
2006,07,16,10,16,678.10
2006,07,16,10,17,679.70
2006,07,16,10,18,680.00
2006,07,16,10,19,684.30
2006,07,16,10,20,686.30
2006,07,16,10,21,688.70
2006,07,16,10,22,691.00
2006,07,16,10,23,692.40
2006,07,16,10,24,695.60
2006,07,16,10,25,696.80
2006,07,16,10,26,700.70
2006,07,16,10,27,700.40
2006,07,16,10,28,703.40
2006,07,16,10,29,706.50
2006,07,16,10,30,709.60
2006,07,16,10,31,710.40
2006,07,16,10,32,712.00
2006,07,16,10,33,713.40
2006,07,16,10,34,716.30
2006,07,16,10,35,718.60
2006,07,16,10,36,720.90
2006,07,16,10,37,722.40
2006,07,16,10,38,724.00
2006,07,16,10,39,724.00
2006,07,16,10,40,724.00
2006,07,16,10,41,724.00
2006,07,16,10,42,732.20
2006,07,16,10,43,733.50
2006,07,16,10,44,735.80
2006,07,16,10,45,737.50
2006,07,16,10,46,739.30
2006,07,16,10,47,741.70
2006,07,16,10,48,744.00
2006,07,16,10,49,745.50
2006,07,16,10,50,747.00
2006,07,16,10,51,747.00
2006,07,16,10,52,749.70
2006,07,16,10,53,751.80
2006,07,16,10,54,754.20
2006,07,16,10,55,756.50
2006,07,16,10,56,758.40
2006,07,16,10,57,760.10
2006,07,16,10,58,761.00
2006,07,16,10,59,762.70
2006,07,16,11,00,763.30
2006,07,16,11,01,765.30
2006,07,16,11,02,766.80
2006,07,16,11,03,769.10
2006,07,16,11,04,770.00
2006,07,16,11,05,772.60
2006,07,16,11,06,773.30
2006,07,16,11,07,775.60
2006,07,16,11,08,777.90
2006,07,16,11,09,779.60
2006,07,16,11,10,780.00
2006,07,16,11,11,782.00
2006,07,16,11,12,786.00
2006,07,16,11,13,785.30
2006,07,16,11,14,785.90
2006,07,16,11,15,789.80
2006,07,16,11,16,791.00
2006,07,16,11,17,794.60
2006,07,16,11,18,793.40
2006,07,16,11,19,795.30
2006,07,16,11,20,794.50
2006,07,16,11,21,796.10
2006,07,16,11,22,799.60
2006,07,16,11,23,802.70
2006,07,16,11,24,802.70
2006,07,16,11,25,805.80
2006,07,16,11,26,808.00
2006,07,16,11,27,809.00
2006,07,16,11,28,809.80
2006,07,16,11,29,809.30
2006,07,16,11,30,812.50
2006,07,16,11,31,814.00
2006,07,16,11,32,814.00
2006,07,16,11,33,815.30
2006,07,16,11,34,818.50
2006,07,16,11,35,819.00
2006,07,16,11,36,820.00
2006,07,16,11,37,823.00
2006,07,16,11,38,823.60
2006,07,16,11,39,825.40
2006,07,16,11,40,827.70
2006,07,16,11,41,828.30
2006,07,16,11,42,830.30
2006,07,16,11,43,831.90
2006,07,16,11,44,833.00
2006,07,16,11,45,834.40
2006,07,16,11,46,836.70
2006,07,16,11,47,835.30
2006,07,16,11,48,837.30
2006,07,16,11,49,838.90
2006,07,16,11,50,840.00
2006,07,16,11,51,841.50
2006,07,16,11,52,842.10
2006,07,16,11,53,844.40
2006,07,16,11,54,846.00
2006,07,16,11,55,847.40
2006,07,16,11,56,847.80
2006,07,16,11,57,848.60
2006,07,16,11,58,850.70
2006,07,16,11,59,849.90
2006,07,16,12,00,854.10
2006,07,16,12,01,855.00
2006,07,16,12,02,854.00
2006,07,16,12,03,857.10
2006,07,16,12,04,858.20
2006,07,16,12,05,861.10
2006,07,16,12,06,865.00
2006,07,16,12,07,865.00
2006,07,16,12,08,866.40
2006,07,16,12,09,869.30
2006,07,16,12,10,870.20
2006,07,16,12,11,873.30
2006,07,16,12,12,878.50
2006,07,16,12,13,881.00
2006,07,16,12,14,883.10
2006,07,16,12,15,885.60
2006,07,16,12,16,887.40
2006,07,16,12,17,884.50
2006,07,16,12,18,886.00
2006,07,16,12,19,887.10
2006,07,16,12,20,886.60
2006,07,16,12,21,882.70
2006,07,16,12,22,884.20
2006,07,16,12,23,886.00
2006,07,16,12,24,885.10
2006,07,16,12,25,885.20
2006,07,16,12,26,884.60
2006,07,16,12,27,884.00
2006,07,16,12,28,882.30
2006,07,16,12,29,884.60
2006,07,16,12,30,885.10
2006,07,16,12,31,885.20
2006,07,16,12,32,886.00
2006,07,16,12,33,885.90
2006,07,16,12,34,884.30
2006,07,16,12,35,886.70
2006,07,16,12,36,886.10
2006,07,16,12,37,885.20
2006,07,16,12,38,884.40
2006,07,16,12,39,885.90
2006,07,16,12,40,888.00
2006,07,16,12,41,888.00
2006,07,16,12,42,888.00
2006,07,16,12,43,886.80
2006,07,16,12,44,886.00
2006,07,16,12,45,887.80
2006,07,16,12,46,888.20
2006,07,16,12,47,889.70
2006,07,16,12,48,890.00
2006,07,16,12,49,888.30
2006,07,16,12,50,890.40
2006,07,16,12,51,891.20
2006,07,16,12,52,893.00
2006,07,16,12,53,893.00
2006,07,16,12,54,893.00
2006,07,16,12,55,894.40
2006,07,16,12,56,895.00
2006,07,16,12,57,895.00
2006,07,16,12,58,895.00
2006,07,16,12,59,895.40
2006,07,16,13,00,896.00
2006,07,16,13,01,898.80
2006,07,16,13,02,898.30
2006,07,16,13,03,898.30
2006,07,16,13,04,899.40
2006,07,16,13,05,898.80
2006,07,16,13,06,900.00
2006,07,16,13,07,900.00
2006,07,16,13,08,900.00
2006,07,16,13,09,900.00
2006,07,16,13,10,899.40
2006,07,16,13,11,898.90
2006,07,16,13,12,900.00
2006,07,16,13,13,900.00
2006,07,16,13,14,900.20
2006,07,16,13,15,904.20
2006,07,16,13,16,903.30
2006,07,16,13,17,900.00
2006,07,16,13,18,901.30
2006,07,16,13,19,900.40
2006,07,16,13,20,900.10
2006,07,16,13,21,902.40
2006,07,16,13,22,904.00
2006,07,16,13,23,904.00
2006,07,16,13,24,902.80
2006,07,16,13,25,902.00
2006,07,16,13,26,900.10
2006,07,16,13,27,900.00
2006,07,16,13,28,900.80
2006,07,16,13,29,902.00
2006,07,16,13,30,899.40
2006,07,16,13,31,899.70
2006,07,16,13,32,898.10
2006,07,16,13,33,898.00
2006,07,16,13,34,899.60
2006,07,16,13,35,899.70
2006,07,16,13,36,898.00
2006,07,16,13,37,899.70
2006,07,16,13,38,898.10
2006,07,16,13,39,898.00
2006,07,16,13,40,897.20
2006,07,16,13,41,898.20
2006,07,16,13,42,897.20
2006,07,16,13,43,897.70
2006,07,16,13,44,896.30
2006,07,16,13,45,898.60
2006,07,16,13,46,899.10
2006,07,16,13,47,896.80
2006,07,16,13,48,895.30
2006,07,16,13,49,895.00
2006,07,16,13,50,898.00
2006,07,16,13,51,897.40
2006,07,16,13,52,896.00
2006,07,16,13,53,896.00
2006,07,16,13,54,896.00
2006,07,16,13,55,895.80
2006,07,16,13,56,891.70
2006,07,16,13,57,894.30
2006,07,16,13,58,894.40
2006,07,16,13,59,895.40
2006,07,16,14,00,895.00
2006,07,16,14,01,893.20
2006,07,16,14,02,892.20
2006,07,16,14,03,889.70
2006,07,16,14,04,891.00
2006,07,16,14,05,891.00
2006,07,16,14,06,888.70
2006,07,16,14,07,890.70
2006,07,16,14,08,891.00
2006,07,16,14,09,889.30
2006,07,16,14,10,887.00
2006,07,16,14,11,888.00
2006,07,16,14,12,886.40
2006,07,16,14,13,887.70
2006,07,16,14,14,885.50
2006,07,16,14,15,885.60
2006,07,16,14,16,888.00
2006,07,16,14,17,888.00
2006,07,16,14,18,886.30
2006,07,16,14,19,884.30
2006,07,16,14,20,885.00
2006,07,16,14,21,882.80
2006,07,16,14,22,882.80
2006,07,16,14,23,882.00
2006,07,16,14,24,882.00
2006,07,16,14,25,881.00
2006,07,16,14,26,881.30
2006,07,16,14,27,881.60
2006,07,16,14,28,879.90
2006,07,16,14,29,877.50
2006,07,16,14,30,875.30
2006,07,16,14,31,874.80
2006,07,16,14,32,874.30
2006,07,16,14,33,875.00
2006,07,16,14,34,873.20
2006,07,16,14,35,870.50
2006,07,16,14,36,871.80
2006,07,16,14,37,871.60
2006,07,16,14,38,870.00
2006,07,16,14,39,869.00
2006,07,16,14,40,868.00
2006,07,16,14,41,867.20
2006,07,16,14,42,867.00
2006,07,16,14,43,866.60
2006,07,16,14,44,864.20
2006,07,16,14,45,863.00
2006,07,16,14,46,863.00
2006,07,16,14,47,860.70
2006,07,16,14,48,860.00
2006,07,16,14,49,860.00
2006,07,16,14,50,859.30
2006,07,16,14,51,858.00
2006,07,16,14,52,855.30
2006,07,16,14,53,854.00
2006,07,16,14,54,852.90
2006,07,16,14,55,850.50
2006,07,16,14,56,849.80
2006,07,16,14,57,848.80
2006,07,16,14,58,848.40
2006,07,16,14,59,846.40
2006,07,16,15,00,845.70
2006,07,16,15,01,843.40
2006,07,16,15,02,841.10
2006,07,16,15,03,840.00
2006,07,16,15,04,838.60
2006,07,16,15,05,837.10
2006,07,16,15,06,837.00
2006,07,16,15,07,836.40
2006,07,16,15,08,835.90
2006,07,16,15,09,835.90
2006,07,16,15,10,832.00
2006,07,16,15,11,831.00
2006,07,16,15,12,831.30
2006,07,16,15,13,831.40
2006,07,16,15,14,828.00
2006,07,16,15,15,826.80
2006,07,16,15,16,824.50
2006,07,16,15,17,823.10
2006,07,16,15,18,822.70
2006,07,16,15,19,820.30
2006,07,16,15,20,818.10
2006,07,16,15,21,817.00
2006,07,16,15,22,816.20
2006,07,16,15,23,814.20
2006,07,16,15,24,813.20
2006,07,16,15,25,810.00
2006,07,16,15,26,809.50
2006,07,16,15,27,807.70
2006,07,16,15,28,807.00
2006,07,16,15,29,803.20
2006,07,16,15,30,802.30
2006,07,16,15,31,800.00
2006,07,16,15,32,800.00
2006,07,16,15,33,798.70
2006,07,16,15,34,801.30
2006,07,16,15,35,795.40
2006,07,16,15,36,795.30
2006,07,16,15,37,792.20
2006,07,16,15,38,792.00
2006,07,16,15,39,790.30
2006,07,16,15,40,789.00
2006,07,16,15,41,787.80
2006,07,16,15,42,786.50
2006,07,16,15,43,787.20
2006,07,16,15,44,784.90
2006,07,16,15,45,785.40
2006,07,16,15,46,780.80
2006,07,16,15,47,779.60
2006,07,16,15,48,777.00
2006,07,16,15,49,777.00
2006,07,16,15,50,778.10
2006,07,16,15,51,777.50
2006,07,16,15,52,778.70
2006,07,16,15,53,774.00
2006,07,16,15,54,779.00
2006,07,16,15,55,780.40
2006,07,16,15,56,765.50
2006,07,16,15,57,754.00
2006,07,16,15,58,605.20
2006,07,16,15,59,573.90
2006,07,16,16,00,526.00
2006,07,16,16,01,526.00
2006,07,16,16,02,619.10
2006,07,16,16,03,671.90
2006,07,16,16,04,684.70
2006,07,16,16,05,686.00
2006,07,16,16,06,696.10
2006,07,16,16,07,736.00
2006,07,16,16,08,759.00
2006,07,16,16,09,616.80
2006,07,16,16,10,618.10
2006,07,16,16,11,654.70
2006,07,16,16,12,751.00
2006,07,16,16,13,703.00
2006,07,16,16,14,721.00
2006,07,16,16,15,741.30
2006,07,16,16,16,755.00
2006,07,16,16,17,747.00
2006,07,16,16,18,723.50
2006,07,16,16,19,722.20
2006,07,16,16,20,737.10
2006,07,16,16,21,723.80
2006,07,16,16,22,726.30
2006,07,16,16,23,704.60
2006,07,16,16,24,650.80
2006,07,16,16,25,617.00
2006,07,16,16,26,622.10
2006,07,16,16,27,700.50
2006,07,16,16,28,629.00
2006,07,16,16,29,631.70
2006,07,16,16,30,638.00
2006,07,16,16,31,638.00
2006,07,16,16,32,687.50
2006,07,16,16,33,709.70
2006,07,16,16,34,710.80
2006,07,16,16,35,701.50
2006,07,16,16,36,700.30
2006,07,16,16,37,697.90
2006,07,16,16,38,629.00
2006,07,16,16,39,649.50
2006,07,16,16,40,638.50
2006,07,16,16,41,587.70
2006,07,16,16,42,630.40
2006,07,16,16,43,671.20
2006,07,16,16,44,662.10
2006,07,16,16,45,670.50
2006,07,16,16,46,678.10
2006,07,16,16,47,662.30
2006,07,16,16,48,663.40
2006,07,16,16,49,672.40
2006,07,16,16,50,650.40
2006,07,16,16,51,619.10
2006,07,16,16,52,660.70
2006,07,16,16,53,642.70
2006,07,16,16,54,651.90
2006,07,16,16,55,669.10
2006,07,16,16,56,670.40
2006,07,16,16,57,661.50
2006,07,16,16,58,642.80
2006,07,16,16,59,639.50
2006,07,16,17,00,601.00
2006,07,16,17,01,601.70
2006,07,16,17,02,597.10
2006,07,16,17,03,578.00
2006,07,16,17,04,471.00
2006,07,16,17,05,517.10
2006,07,16,17,06,570.80
2006,07,16,17,07,571.10
2006,07,16,17,08,646.30
2006,07,16,17,09,698.80